WetterOnline ( https://www.wetteronline.de )

Wetter aktuell Kvikkjokk

Aktuelles Wetter: Kvikkjokk Arrenjarka A (320m)

6-stündlich | Neueste Meldungen
Ortszeit Temperatur Wetter
So, 09.05. 14:00 5.8° C wolkenlos
So, 09.05. 8:00 3.4° C wolkig
So, 09.05. 2:00 -4.7° C leicht bewölkt
Sa, 08.05. 20:00 2.3° C bewölkt
Sa, 08.05. 14:00 4.0° C leicht bewölkt
Sa, 08.05. 8:00 1.6° C bewölkt
Sa, 08.05. 2:00 -3.1° C bedeckt
Fr, 07.05. 20:00 1.3° C leicht bewölkt
Ortszeit Temperatur Wetter
So, 09.05. 19:00 5.0° C wolkenlos
So, 09.05. 18:00 5.6° C wolkenlos
So, 09.05. 17:00 6.0° C wolkenlos
So, 09.05. 16:00 6.0° C wolkenlos
So, 09.05. 15:00 5.5° C leicht bewölkt
So, 09.05. 14:00 5.8° C wolkenlos
Ortszeit Relative Feuchte Sichtweite
So, 09.05. 14:00 38% 50 km
So, 09.05. 8:00 47% 50 km
So, 09.05. 2:00 80% 50 km
Sa, 08.05. 20:00 52% 50 km
Sa, 08.05. 14:00 45% 50 km
Sa, 08.05. 8:00 47% 50 km
Sa, 08.05. 2:00 73% 50 km
Fr, 07.05. 20:00 38% 50 km
Ortszeit Relative Feuchte Sichtweite
So, 09.05. 19:00 43% 50 km
So, 09.05. 18:00 38% 50 km
So, 09.05. 17:00 36% 50 km
So, 09.05. 16:00 38% 45 km
So, 09.05. 15:00 38% 50 km
So, 09.05. 14:00 38% 50 km
Ortszeit Niederschlagsmenge Niederschlagsart
So, 09.05. 14:00 keine Meldung -
So, 09.05. 8:00 0.0 l/m2 in 12 Std. -
So, 09.05. 2:00 keine Meldung -
Sa, 08.05. 20:00 0.0 l/m2 in 12 Std. -
Sa, 08.05. 14:00 keine Meldung -
Sa, 08.05. 8:00 0.0 l/m2 in 12 Std. -
Sa, 08.05. 2:00 0.0 l/m2 in 1 Std. -
Fr, 07.05. 20:00 0.0 l/m2 in 12 Std. -
Ortszeit Niederschlagsmenge Niederschlagsart
So, 09.05. 19:00 0.0 l/m2 in 1 Std. -
So, 09.05. 18:00 0.0 l/m2 in 1 Std. -
So, 09.05. 17:00 0.0 l/m2 in 1 Std. -
So, 09.05. 16:00 0.0 l/m2 in 1 Std. -
So, 09.05. 15:00 0.0 l/m2 in 1 Std. -
So, 09.05. 14:00 0.0 l/m2 in 1 Std. -
Ortszeit Stärke Spitze Richtung
km/h Bft. km/h Grad Sektor
So, 09.05. 14:00 11 2 - 240° SW
So, 09.05. 8:00 11 2 22 240° SW
So, 09.05. 2:00 4 1 - 10° N
Sa, 08.05. 20:00 7 2 32 250° W
Sa, 08.05. 14:00 11 2 - 250° W
Sa, 08.05. 8:00 7 2 18 230° SW
Sa, 08.05. 2:00 0 0 7 - -
Fr, 07.05. 20:00 9 2 - 310° NW
Ortszeit Stärke Spitze Richtung
km/h Bft. km/h Grad Sektor
So, 09.05. 19:00 7 2 25 270° W
So, 09.05. 18:00 9 2 20 250° W
So, 09.05. 17:00 11 2 25 260° W
So, 09.05. 16:00 13 3 30 250° W
So, 09.05. 15:00 13 3 28 250° W
So, 09.05. 14:00 11 2 25 240° SW
Ortszeit Untergrenze Bedeckung Gattung
total tief tief mittel hoch
So, 09.05. 14:00 - 0/8 0/8 - - -
So, 09.05. 8:00 3000 m 6/8 6/8 - - -
So, 09.05. 2:00 5700 m 2/8 2/8 - - -
Sa, 08.05. 20:00 1800 m 7/8 7/8 - - -
Sa, 08.05. 14:00 1470 m 4/8 4/8 - - -
Sa, 08.05. 8:00 1110 m 7/8 7/8 - - -
Sa, 08.05. 2:00 2100 m 8/8 8/8 - - -
Fr, 07.05. 20:00 5100 m 4/8 4/8 - - -
Ortszeit Bedeckungsgrad in Achtel und Wolkenuntergrenze
So, 09.05. 19:00 keine Wolken
So, 09.05. 18:00 keine Wolken
So, 09.05. 17:00 keine Wolken
So, 09.05. 16:00 keine Wolken
So, 09.05. 15:00 4(1500m) 4(2100m)
So, 09.05. 14:00 keine Wolken
Ortszeit Luftdruck NN (hPa) Tendenz (hPa in 3 Std.)
So, 09.05. 14:00 1007 + 0,8
So, 09.05. 8:00 1006 - 0,1
So, 09.05. 2:00 1006 + 0,3
Sa, 08.05. 20:00 1005 + 0,9
Sa, 08.05. 14:00 1003 + 0,8
Sa, 08.05. 8:00 1002 - 0,1
Sa, 08.05. 2:00 1003 - 0,5
Fr, 07.05. 20:00 1003 + 0,1
Ortszeit Luftdruck NN (hPa) Tendenz (hPa in 3 Std.)
So, 09.05. 19:00 1007 + 0,1
So, 09.05. 18:00 1007 + 0,2
So, 09.05. 17:00 1007 + 0,4
So, 09.05. 16:00 1007 + 0,6
So, 09.05. 15:00 1007 + 0,7
So, 09.05. 14:00 1007 + 0,8
Ortszeit Schneehöhe (cm)
So, 09.05. 14:00 -
So, 09.05. 8:00 -
So, 09.05. 2:00 -
Sa, 08.05. 20:00 -
Sa, 08.05. 14:00 -
Sa, 08.05. 8:00 -
Sa, 08.05. 2:00 -
Fr, 07.05. 20:00 -
Ortszeit Schneehöhe (cm)
So, 09.05. 19:00 -
So, 09.05. 18:00 -
So, 09.05. 17:00 -
So, 09.05. 16:00 -
So, 09.05. 15:00 -
So, 09.05. 14:00 -
Link zu dieser Seite / Seite empfehlen

Das Wetter in ...